星链-6329 (STARLINK-6329 )

导读

STARLINK-6329是美国太空探索技术公司Starlink星链卫星互联网项目的一员,于2023年5月14日发射升空,属于星链分组组网的批量发射卫星,主要服务于全球覆盖的低轨卫星互联网组网,可为全球偏远地区、海洋空域等场景提供高速互联网接入服务。

基本信息
目录编号:
56525
目录名称:
STARLINK-6329
国际标识:
2023-065Y
轨道中心:
EARTH
卫星名称:
星链-6329
卫星全名:
星链-6329 (STARLINK-6329 )
卫星状态:
在轨 (已飞行1217 天)
发射日期:
2023-05-14 UTC
国别 :
美国 (US)
星等 :
--
该卫星已列入 空间交会检测服务 Space Conjunction Data Service (SCDS) ,当前飞行风险评估等级: 高风险
轨道信息
数据来源 国际轨道数据
星历时间: 2026-09-12T14:10:46+0800
11小时前
查看轨道信息
半长轴: 6861.165km
偏心率: 0.0001813
轨道倾角: 43.002°
近地点辐角 274.452°
升交点赤经 249.834°
平近点角 85.612°
近地点: 481.784km
远地点: 484.272km
周期: 94.266分钟
每日圈数: 15.275873
详细信息
固有亮度:
5
最大亮度:
2.5
卫星平台:
Starlink v1.5
覆盖范围:
全球
运营商:
太空探索技术公司
运营商所在国:
美国
制造商(研发单位):
太空探索技术公司
制造商所在国:
美国
使用方式:
暂无
卫星简介
星链(Starlink)计划是由太空探索技术公司(SpaceX)提出的一个巨型低轨卫星互联网星座项目,计划在2019年至2024年间在太空搭建由约1.2万颗卫星组成的“星链”网络,其中1584颗将部署在地球上空550千米处的近地轨道,并从2020年开始工作。该卫星仍在工作。
2D轨道图
3D轨道图
轨道高度分析图
轨道倾角分析图
轨道综合分析图
查看轨道综合分析图
交会数据列表
事件ID 空间交会对象 最接近时刻(TCA) 交会距离 交会风险概率(CRP) 交会风险指数(CRI) 操作
CDM_260912-044105-652506-549123
OBJECT-D (65491)
2026-09-12T
04:41:26+0000
0.607 km
远距离
1.247845E-4 高风险 0.77
与全量物体交会距离演化趋势
与全量物体交会风险概率演化趋势